FW1714 Weather Reports


time (UTC)temp
C
wind
direction
speed
KPH
gust
KPH
rain 1hr
cm
rain 24hr
cm
rain mn
cm
humidity
%
barometer
mb
20260505035326 8 360 4.8 9.7 0.08 0.43 0.43 74 1024.5
20260505034822 8 360 4.8 14.5 0.10 0.43 0.43 74 1024.4
20260505034315 8 360 6.4 16.1 0.18 0.43 0.43 74 1024.5
20260505033813 8 360 4.8 9.7 0.23 0.43 0.43 75 1024.5
20260505033346 8 360 3.2 14.5 0.30 0.43 0.43 75 1024.5
20260505032820 8 360 6.4 14.5 0.36 0.43 0.43 76 1024.7
20260505032323 8 360 4.8 12.9 0.36 0.41 0.41 77 1024.7
20260505031820 8 360 6.4 9.7 0.38 0.41 0.41 77 1024.7
20260505031323 8 360 4.8 9.7 0.38 0.41 0.41 77 1024.7
20260505030819 8 360 1.6 9.7 0.41 0.41 0.41 77 1024.6
20260505030321 8 360 1.6 4.8 0.41 0.41 0.41 77 1024.5
20260505025818 8 360 0.0 4.8 0.38 0.38 0.38 77 1024.6
20260505025331 8 360 0.0 6.4 0.36 0.36 0.36 76 1024.5
20260505024826 9 360 0.0 8.0 0.33 0.33 0.33 75 1024.4
20260505024338 9 360 1.6 6.4 0.25 0.25 0.25 75 1024.4
20260505023834 10 360 1.6 8.0 0.20 0.20 0.20 74 1024.3
20260505023330 10 360 4.8 8.0 0.13 0.13 0.13 73 1024.2
20260505022826 10 360 3.2 8.0 0.08 0.08 0.08 73 1024.1
20260505022328 11 360 0.0 3.2 0.05 0.05 0.05 73 1024.0
20260505021825 11 360 0.0 3.2 0.03 0.03 0.03 72 1023.8
20260505021329 11 360 0.0 4.8 0.03 0.03 0.03 70 1023.7
20260505020825 11 360 1.6 4.8 0.00 0.00 0.00 70 1023.6
20260505020328 11 360 0.0 1.6 0.00 0.00 0.00 67 1023.5
20260505015824 11 360 0.0 1.6 0.00 0.00 0.00 66 1023.6
20260505015316 11 360 0.0 0.0 0.00 0.00 0.00 65 1023.5
20260505014814 11 360 0.0 0.0 0.00 0.00 0.00 62 1023.4
20260505014326 11 360 0.0 1.6 0.00 0.00 0.00 62 1023.5
20260505013824 11 360 0.0 3.2 0.00 0.00 0.00 62 1023.3
20260505013320 12 360 0.0 3.2 0.00 0.00 0.00 61 1023.2
20260505012836 12 360 0.0 3.2 0.00 0.00 0.00 61 1023.1
20260505012318 12 360 0.0 4.8 0.00 0.00 0.00 60 1023.2
20260505011815 12 360 1.6 6.4 0.00 0.00 0.00 60 1023.1
20260505011318 13 360 1.6 8.0 0.00 0.00 0.00 56 1023.1
20260505010813 13 360 1.6 9.7 0.00 0.00 0.00 54 1023.0
20260505010317 13 360 3.2 9.7 0.00 0.00 0.00 52 1023.1
20260505005813 14 360 0.0 1.6 0.00 0.00 0.00 50 1022.8
20260505005346 14 360 0.0 1.6 0.00 0.00 0.00 51 1022.8
20260505004821 14 360 0.0 3.2 0.00 0.00 0.00 50 1022.8
20260505004313 14 360 1.6 3.2 0.00 0.00 0.00 50 1022.6
20260505003831 14 321 0.0 3.2 0.00 0.00 0.00 50 1022.7
20260505003323 14 321 0.0 3.2 0.00 0.00 0.00 50 1022.7
20260505002819 14 322 0.0 8.0 0.00 0.00 0.00 52 1022.7
20260505002325 14 321 3.2 8.0 0.00 0.00 0.00 51 1022.7
20260505001822 14 329 1.6 6.4 0.00 0.00 0.00 52 1022.9
20260505001326 15 315 1.6 6.4 0.00 0.00 0.00 54 1022.7
20260505000822 14 304 0.0 3.2 0.00 0.00 0.00 53 1022.7
20260505000325 14 302 0.0 3.2 0.00 0.00 0.00 49 1022.7
20260504235821 14 302 0.0 3.2 0.00 0.00 0.00 50 1022.6
20260504235313 14 301 0.0 0.0 0.00 0.00 0.00 52 1022.6
20260504234830 13 301 0.0 0.0 0.00 0.00 0.00 55 1022.5
20260504234343 13 302 0.0 0.0 0.00 0.00 0.00 56 1022.7
20260504233819 13 302 0.0 0.0 0.00 0.00 0.00 55 1022.6
20260504233333 13 301 0.0 0.0 0.00 0.00 0.00 55 1022.6
20260504232829 13 301 0.0 0.0 0.00 0.00 0.00 57 1022.7
20260504232351 13 301 0.0 0.0 0.00 0.00 0.00 57 1022.6
20260504231827 13 301 0.0 0.0 0.00 0.00 0.00 55 1022.6
20260504231335 13 301 0.0 1.6 0.00 0.00 0.00 55 1022.4
20260504230830 13 279 0.0 1.6 0.00 0.00 0.00 56 1022.4
20260504230313 13 360 0.0 0.0 0.00 0.00 0.00 58 1022.4
20260504225829 13 360 0.0 1.6 0.00 0.00 0.00 56 1022.4
20260504225322 13 360 0.0 4.8 0.00 0.00 0.00 58 1022.6
20260504224820 13 360 0.0 6.4 0.00 0.00 0.00 61 1022.6
20260504224333 13 360 1.6 19.3 0.00 0.00 0.00 54 1022.8
20260504223828 14 360 6.4 19.3 0.00 0.00 0.00 50 1022.9
20260504223321 15 360 9.7 19.3 0.00 0.00 0.00 43 1023.0
20260504222819 15 360 0.0 8.0 0.00 0.00 0.00 39 1022.9
20260504222322 15 360 1.6 12.9 0.00 0.00 0.00 40 1023.0
20260504221837 15 360 4.8 12.9 0.00 0.00 0.00 39 1022.9
20260504221319 16 340 3.2 8.0 0.00 0.00 0.00 40 1022.7
20260504220815 16 360 0.0 6.4 0.00 0.00 0.00 40 1022.4
20260504220323 16 360 3.2 6.4 0.00 0.00 0.00 40 1021.9
20260504215820 16 119 0.0 6.4 0.00 0.00 0.00 41 1021.7
20260504215332 16 119 1.6 8.0 0.00 0.00 0.00 40 1021.3
20260504214828 16 52 1.6 8.0 0.00 0.00 0.00 40 1021.3
20260504214340 16 331 1.6 11.3 0.00 0.00 0.00 41 1021.3
20260504213836 16 197 3.2 11.3 0.00 0.00 0.00 40 1021.4
20260504213327 16 87 1.6 12.9 0.00 0.00 0.00 39 1021.5
20260504212825 17 94 3.2 12.9 0.00 0.00 0.00 38 1021.5
20260504212348 17 108 3.2 12.9 0.00 0.00 0.00 37 1021.5
20260504211823 17 319 3.2 12.9 0.00 0.00 0.00 35 1021.5
20260504211326 18 355 1.6 12.9 0.00 0.00 0.00 34 1021.3
20260504210823 18 75 3.2 12.9 0.00 0.00 0.00 33 1021.3
20260504210327 18 71 3.2 24.1 0.00 0.00 0.00 34 1021.4
20260504205823 18 82 3.2 24.1 0.00 0.00 0.00 33 1021.4
20260504205317 18 82 6.4 20.9 0.00 0.00 0.00 33 1021.6
20260504204854 18 94 4.8 27.4 0.00 0.00 0.00 30 1021.6
20260504204345 20 126 4.8 27.4 0.00 0.00 0.00 26 1021.6
20260504203825 20 87 3.2 12.9 0.00 0.00 0.00 25 1021.0
20260504203338 20 184 0.0 9.7 0.00 0.00 0.00 25 1020.8
20260504202815 20 146 1.6 12.9 0.00 0.00 0.00 25 1020.9
20260504202317 20 239 3.2 19.3 0.00 0.00 0.00 24 1020.8
20260504201814 19 223 6.4 19.3 0.00 0.00 0.00 24 1020.7
20260504201337 19 239 8.0 20.9 0.00 0.00 0.00 25 1020.6
20260504200834 19 194 9.7 20.9 0.00 0.00 0.00 26 1020.8
20260504200316 19 217 11.3 20.9 0.00 0.00 0.00 25 1020.9
20260504195833 20 229 11.3 32.2 0.00 0.00 0.00 25 1020.8
20260504195346 20 196 11.3 32.2 0.00 0.00 0.00 25 1020.8
20260504194822 20 230 11.3 24.1 0.00 0.00 0.00 25 1020.9
20260504194315 20 223 11.3 25.7 0.00 0.00 0.00 23 1020.9
20260504193832 20 221 12.9 25.7 0.00 0.00 0.00 21 1021.0
20260504193345 21 179 11.3 22.5 0.00 0.00 0.00 19 1020.8
20260504192822 21 175 14.5 22.5 0.00 0.00 0.00 19 1020.6
20260504192324 21 175 4.8 14.5 0.00 0.00 0.00 20 1020.6
20260504191820 21 213 4.8 11.3 0.00 0.00 0.00 21 1020.5
20260504191324 21 150 1.6 9.7 0.00 0.00 0.00 22 1020.6
20260504190824 21 309 3.2 20.9 0.00 0.00 0.00 20 1020.8
20260504190327 21 261 6.4 20.9 0.00 0.00 0.00 20 1020.7
20260504185825 21 192 6.4 9.7 0.00 0.00 0.00 22 1020.6
20260504185318 21 300 4.8 9.7 0.00 0.00 0.00 20 1020.7
20260504184816 21 274 3.2 12.9 0.00 0.00 0.00 19 1020.6
20260504184330 21 320 3.2 12.9 0.00 0.00 0.00 19 1020.8
20260504183826 21 224 4.8 11.3 0.00 0.00 0.00 21 1020.8
20260504183318 21 199 4.8 16.1 0.00 0.00 0.00 20 1020.9
20260504182816 21 260 4.8 17.7 0.00 0.00 0.00 21 1020.9
20260504182319 20 317 3.2 20.9 0.00 0.00 0.00 23 1021.1
20260504181815 20 275 8.0 20.9 0.00 0.00 0.00 24 1021.1
20260504181337 20 257 8.0 16.1 0.00 0.00 0.00 23 1021.3
20260504180817 20 277 8.0 16.1 0.00 0.00 0.00 23 1021.4
20260504180340 20 203 8.0 17.7 0.00 0.00 0.00 23 1021.5
20260504175816 20 314 4.8 24.1 0.00 0.00 0.00 25 1021.6
20260504175329 20 321 9.7 20.9 0.00 0.00 0.00 25 1021.7
20260504174825 20 268 8.0 17.7 0.00 0.00 0.00 25 1022.0
20260504174318 20 355 6.4 16.1 0.00 0.00 0.00 25 1022.0
20260504173816 20 246 6.4 20.9 0.00 0.00 0.00 25 1022.2
20260504173350 19 191 11.3 25.7 0.00 0.00 0.00 25 1022.3
20260504172825 19 247 11.3 25.7 0.00 0.00 0.00 25 1022.3
20260504172327 18 245 4.8 19.3 0.00 0.00 0.00 27 1022.5
20260504171825 18 213 8.0 16.1 0.00 0.00 0.00 27 1022.4
20260504171328 18 43 6.4 16.1 0.00 0.00 0.00 27 1022.5
20260504170825 18 280 9.7 16.1 0.00 0.00 0.00 27 1022.7
20260504170349 18 255 4.8 19.3 0.00 0.00 0.00 27 1022.6
20260504160322 17 238 4.8 16.1 0.00 0.00 0.00 28 1022.3
20260504150852 16 285 9.7 17.7 0.00 0.00 0.00 27 1022.5
20260504150330 16 260 4.8 12.9 0.00 0.00 0.00 27 1022.6
20260504141324 16 144 3.2 9.7 0.00 0.00 0.00 25 1023.0
20260504140822 16 140 4.8 9.7 0.00 0.00 0.00 25 1022.8
20260504140323 16 213 0.0 1.6 0.00 0.00 0.00 24 1022.9
20260504130813 15 360 6.4 24.1 0.00 0.00 0.00 25 1022.5
20260504130336 13 360 8.0 17.7 0.00 0.00 0.00 28 1022.4
20260504110317 6 360 0.0 4.8 0.00 0.00 0.00 46 1022.3
20260504100313 6 360 0.0 1.6 0.00 0.00 0.00 47 1022.6
20260504081819 7 360 0.0 0.0 0.00 0.00 0.00 45 1023.3
20260504081322 7 360 0.0 0.0 0.00 0.00 0.00 44 1023.5
20260504080820 7 360 0.0 0.0 0.00 0.00 0.00 44 1023.5
20260504080323 7 360 0.0 0.0 0.00 0.00 0.00 44 1023.5
20260504070318 8 360 0.0 0.0 0.00 0.00 0.00 40 1024.0
20260504050324 16 360 4.8 14.5 0.00 0.00 0.00 24 1024.0
20260504045840 16 360 6.4 12.9 0.00 0.00 0.00 23 1024.0
20260504045332 17 244 3.2 12.9 0.00 0.00 0.00 23 1024.0
20260504044849 17 229 6.4 16.1 0.00 0.00 0.00 23 1024.0
20260504044341 17 360 8.0 16.1 0.00 0.00 0.00 24 1024.1
20260504043818 17 257 6.4 14.5 0.00 0.00 0.00 23 1024.2
20260504043332 17 360 4.8 14.5 0.00 0.00 0.00 23 1024.1
20260504042830 17 360 4.8 9.7 0.00 0.00 0.00 23 1024.2
20260504042332 17 360 4.8 12.9 0.00 0.00 0.00 23 1024.1
20260504041830 17 244 6.4 14.5 0.00 0.00 0.00 23 1024.2
20260504041332 17 258 4.8 16.1 0.00 0.00 0.00 24 1024.3
20260504040828 17 267 8.0 16.1 0.00 0.00 0.00 24 1024.4
20260504040315 17 245 6.4 14.5 0.00 0.00 0.00 24 1024.3
20260504035832 17 215 8.0 24.1 0.00 0.00 0.00 24 1024.4